C/2013 P3 ( Palomar )

Japanese version
Home page
Updated on November 13, 2016

---------------------------------------------------------------------

* Profile

Discovery Date August 9, 2013
Magnitude 18.9 mag
Discoverer Palomar Transient Factory

* Pictures

* Orbital Elements

Epoch 2014 Dec. 9.0 TT = JDT 2457000.5
T 2014 Nov. 23.82881 TT                                 MPCW
q   8.6465488            (2000.0)            P               Q
z  -0.0001408      Peri.  177.18360     +0.99782233     +0.04584240
 +/-0.0000008      Node   177.27541     -0.05998860     +0.33180710
e   1.0012178      Incl.   93.91034     +0.02742202     -0.94223273
From 461 observations 2013 Aug. 8-2016 Oct. 20, mean residual 0".5.

* Magnitudes Graph

        m1 = 4.0 + 5 log d + 10.0 log r

---------------------------------------------------------------------

The orbital elements are published on M.P.E.C. 2016-U66.
The magnitudes graphs are made with Comet for Windows.

---------------------------------------------------------------------

Copyright(C) Seiichi Yoshida (comet@aerith.net). All rights reserved.